Regional Weather Roundup
Issued by NWS

Home | Current Version | Previous Version | Graphics & Text | Print | Product List | Glossary On
Versions: 1 2 3 4 5 6 7 8 9 10 11 12 13 14 15 16 17 18 19 20 21 22 23 24 25 26 27 28 29 30 31 32 33 34 35 36 37 38 39 40 41 42 43 44 45 46 47 48 49 50
000
ASUS43 KLMK 201010
RWRKY
KENTUCKY REGIONAL WEATHER ROUNDUP
NATIONAL WEATHER SERVICE LOUISVILLE KY
600 AM EDT SUN APR 20 2014

NOTE "FAIR" INDICATES FEW OR NO CLOUDS BELOW 12,000 FEET
WITH NO SIGNIFICANT WEATHER AND/OR OBSTRUCTIONS TO VISIBILITY.

KYZ001>023-026-027-061>063-070>075-201100-
WESTERN AND SOUTH CENTRAL KENTUCKY

CITY           SKY/WX    TMP DP  RH WIND       PRES   REMARKS
PADUCAH        CLEAR     50  43  77 CALM      30.18S
HENDERSON      CLEAR     45  39  81 CALM      30.21R
OWENSBORO      CLEAR     50  43  77 CALM      30.21S
HOPKINSVILLE   CLEAR     48  39  71 NE3       30.19R
BOWLING GREEN  PTCLDY    45  38  76 CALM      30.20S
GLASGOW        PTCLDY    47  37  66 CALM      30.20R
$$

KYZ024-025-028>034-038-045-046-053-201100-
NORTH CENTRAL KENTUCKY

CITY           SKY/WX    TMP DP  RH WIND       PRES   REMARKS
LOUISVILLE/SDF PTCLDY    51  38  60 N6        30.23R
LOUISVILLE/LOU PTCLDY    51  38  60 CALM      30.23R
FORT KNOX      PTCLDY    48  37  64 N6        30.21R
$$

KYZ035>037-039>044-047>052-055>060-089>105-201100-
NORTHEAST KENTUCKY

CITY           SKY/WX    TMP DP  RH WIND       PRES   REMARKS
LEXINGTON      CLEAR     47  35  63 E7        30.22R
COVINGTON      PTCLDY    45  34  65 N6        30.25R
FRANKFORT      CLEAR     43  36  76 CALM      30.22R
$$

KYZ054-064>069-076>088-106>120-201100-
SOUTHEAST KENTUCKY

CITY           SKY/WX    TMP DP  RH WIND       PRES   REMARKS
JACKSON        MOCLDY    53  31  42 NE5       30.22R
LONDON         PTCLDY    45  37  73 CALM      30.22R
SOMERSET       CLEAR     43  36  75 CALM      30.23R
MIDDLESBORO    MOCLDY    43  41  92 CALM      30.24R
MONTICELLO     SUNNY     38  36  92 CALM      30.23R
$$




USA.gov is the U.S. government's official web portal to all federal, state and local government web resources and services.